Location: Springfield
(37.2150°N, 93.2980°W)
Time: 13:00:17
(UTC-05:00)

Daily predictions for brighter satellites

Satellite Brightness Start Highest point End
(mag) Time Altitude Azimuth Time Altitude Azimuth Time Altitude Azimuth
Cosmos 1821 Rocket 4.2 20:06:21 10° SSE 20:12:09 47° E 20:17:55 10° NNE
Okean 1-7 Rocket 3.8 20:09:46 10° N 20:14:09 76° W 20:18:31 10° S
Cosmos 1633 2.5 20:11:26 10° S 20:15:04 67° E 20:18:42 10° NNE
Cosmos 1536 2.8 20:11:18 10° S 20:15:14 65° E 20:19:13 10° NNE
Meteor 1-28 Rocket 4.4 20:12:08 10° N 20:15:50 50° WNW 20:19:30 10° SSW
Meteor 1-29 3.2 20:13:20 10° N 20:16:46 76° WNW 20:20:14 10° SSW
Cosmos 1346 Rocket 4.2 20:14:46 10° NNE 20:17:47 21° ENE 20:20:48 10° SE
NOSS 2-1 (E) 3.3 20:19:55 10° SSW 20:23:45 77° ESE 20:28:03 10° NE
Cosmos 2227 Rocket 3.3 20:22:56 10° N 20:27:42 27° ENE 20:32:23 10° ESE
Meteor 1-19 Rocket 4.3 20:25:01 10° N 20:30:41 84° W 20:36:16 10° S
Meteor 1-5 Rocket 4.2 20:26:29 10° SSE 20:31:36 51° E 20:36:50 10° NNE
ALOS 2.4 20:27:45 10° SSE 20:32:19 59° ENE 20:36:56 10° N
FENGYUN 3A 3.7 20:27:48 10° SSE 20:33:02 60° ENE 20:38:19 10° N
Helios 1B rocket 4.3 20:34:39 10° N 20:38:26 36° WNW 20:42:12 10° SW
Meteor 2-21 Rocket 4.5 20:33:53 10° S 20:40:05 81° E 20:46:17 10° N
Cosmos 1777 Rocket 4.0 20:35:24 10° NNW 20:40:39 67° ENE 20:45:53 10° SSE
Cosmos 2297 Rocket 3.4 20:38:51 10° N 20:43:33 26° ENE 20:47:09 14° ESE
Cosmos 2123 Rocket 4.1 20:39:38 10° N 20:45:40 54° E 20:51:41 10° SSE
Lacrosse 5 4.1 20:45:08 10° N 20:47:34 13° NNE 20:49:59 10° NE
Cosmos 2208 Rocket 4.0 20:44:13 10° S 20:49:27 69° ESE 20:54:48 10° NNE
H-2A R/B 3.8 20:49:23 13° E 20:50:27 14° ENE 20:52:35 10° NE
Cosmos 1892 Rocket 3.6 20:49:42 10° N 20:54:12 87° W 20:58:40 10° S
Okean 2 3.3 20:51:45 10° N 20:55:56 85° E 21:00:05 10° S
Cosmos 1626 Rocket 4.4 20:52:10 10° NNE 20:56:08 32° ENE 20:58:22 20° SE
Meteor 2-15 4.4 20:51:28 10° N 20:57:34 83° E 21:03:37 10° S
Cosmos 1455 Rocket 2.9 20:53:52 10° S 20:58:10 85° E 21:02:31 10° N
BREEZE-M DEB (TANK) 3.9 20:54:59 10° SW 20:58:40 87° SE 21:11:24 10° NE
Cosmos 1975 3.4 20:55:25 10° SSE 20:59:11 37° E 21:03:00 10° NNE
Cosmos 1025 Rocket 4.3 20:55:15 10° NNW 20:59:24 43° W 21:03:30 10° SSW
NOSS 7 (D) 4.4 20:58:46 10° SW 21:02:20 83° WNW 21:05:41 10° NNE
Meteor 2-15 Rocket 4.4 20:56:20 10° N 21:02:26 77° E 21:08:29 10° S
Cosmos 1602 Rocket 4.1 20:59:56 10° N 21:04:08 39° E 21:06:22 23° SE
NOSS 3-4 (A) 3.8 20:57:59 10° NNW 21:05:03 73° ENE 21:10:47 18° SE
NOSS 3-4 (C) 3.9 20:58:06 10° NNW 21:05:10 72° NE 21:10:52 19° SE
EO 1 Delta rocket 4.1 21:01:23 10° N 21:06:03 80° W 21:11:22 10° SSW
Cosmos 1570 Rocket 4.3 21:02:40 10° SSW 21:07:58 73° WNW 21:13:15 10° NNE
Resurs 01 Rocket 4.1 21:05:47 10° SSW 21:09:14 22° W 21:12:41 10° NW
Lacrosse 5 rocket 2.5 21:09:15 10° NNW 21:12:19 24° NE 21:13:22 21° ENE
Cosmos 1461 3.2 21:08:26 10° NNW 21:12:20 45° NE 21:13:43 32° ESE
Envisat 3.5 21:11:14 24° ESE 21:13:40 40° ENE 21:18:24 10° N
Tiangong 1 2.7 21:12:14 10° WNW 21:15:01 30° N 21:16:49 17° NE
CZ-4 DEB 2.7 21:14:51 41° SE 21:15:40 59° ENE 21:18:46 10° N
Meteor 1-12 Rocket 4.2 21:12:21 10° S 21:18:00 76° E 21:23:49 10° NNE
USA 186 2.9 21:15:42 10° S 21:18:44 40° W 21:21:36 10° NNW
Cosmos 2278 3.9 21:15:28 10° SSW 21:21:06 72° WNW 21:26:49 10° NNE
Cosmos 1697 Rocket 3.1 21:16:07 10° S 21:21:19 39° ESE 21:26:32 10° NE
OTV 4 0.2 21:20:42 10° W 21:23:40 86° N 21:23:53 75° E
H-2A R/B 4.2 21:20:32 10° SSW 21:24:05 36° W 21:27:44 10° NNW
Cosmos 1447 Rocket 4.5 21:20:25 10° N 21:26:42 66° E 21:30:55 22° SSE
DELTA 2 R/B (1) 3.7 21:21:16 10° WNW 21:26:50 71° N 21:29:48 28° E
Cosmos 1939 Rocket 2.9 21:28:30 42° SE 21:29:41 63° ENE 21:33:48 10° N
Delta 2 Rocket 4.0 21:27:42 10° W 21:33:10 62° SSW 21:34:44 41° SE
ASTEX 1 4.3 21:29:07 10° NNE 21:33:03 29° E 21:33:03 29° E
Cosmos 2369 4.1 21:28:28 10° SSW 21:34:03 63° WNW 21:39:44 10° NNE
Cosmos 220 Rocket 4.0 21:30:49 10° N 21:34:59 58° ENE 21:35:36 52° ESE
Iridium 4 Rocket 3.3 21:31:26 10° N 21:36:37 89° W 21:39:24 25° S
SJ-11-01 4.4 21:36:23 26° S 21:39:03 76° WSW 21:43:45 10° NNW
OAO 2 Rocket 3.4 21:37:01 10° WSW 21:41:59 59° S 21:42:57 50° SE
Cosmos 1980 Rocket 3.0 21:44:07 32° E 21:44:07 32° E 21:48:07 10° NE
Cosmos 2016 Rocket 4.3 21:43:28 39° ESE 21:44:19 41° E 21:50:01 10° NNE
Hubble Space Telescope 2.9 21:45:45 10° SW 21:47:42 16° SSW 21:47:42 16° SSW
ARGOS 4.1 21:49:32 31° ENE 21:49:36 31° ENE 21:54:15 10° N
ERS-1 Rocket 3.2 21:47:33 28° S 21:50:11 65° WSW 21:55:12 10° NNW
Cosmos 1898 Rocket 3.5 21:48:52 10° NNW 21:54:09 65° ENE 21:54:53 58° ESE
SL-24 R/B - RUBIN 2 4.4 21:50:04 10° SW 21:55:48 80° WNW 22:02:16 10° NNE
Cosmos 2173 Rocket 3.9 21:53:54 30° S 21:57:13 75° E 22:03:34 10° N
RESURS DK-1 3.7 21:56:33 10° N 21:59:18 29° NNE 21:59:18 29° NNE
Cosmos 2061 Rocket 3.9 22:00:39 31° S 22:03:52 84° E 22:10:11 10° N
Cosmos 2100 Rocket 4.0 22:02:00 24° S 22:06:02 85° W 22:12:19 10° N
SL-19 R/B 4.2 22:03:52 10° NNE 22:08:46 58° ENE 22:08:46 58° ENE
Cosmos 1500 4.4 22:09:17 36° WSW 22:09:53 39° W 22:13:27 10° N
MetOp-B 3.9 22:10:11 73° ESE 22:10:36 78° ENE 22:15:59 10° N
Cosmos 2227 Rocket 3.3 22:06:35 10° NW 22:11:49 39° WSW 22:14:15 26° SSW
Cosmos 468 Rocket 4.2 22:09:26 18° SSW 22:13:16 65° WNW 22:18:22 10° NNE
Cosmos 2263 Rocket 4.5 22:13:48 10° NE 22:14:41 10° NE 22:14:41 10° NE
Cosmos 1825 Rocket 4.0 22:11:53 10° N 22:15:24 55° N 22:15:24 55° N
USA 245 4.3 22:17:06 67° ESE 22:17:34 70° ENE 22:23:53 10° N
CZ-3 Stage 3 4.4 21:29:42 10° W 22:19:11 49° SW 22:21:56 38° S
Cosmos 1814 Rocket 4.3 22:17:57 33° SW 22:20:19 68° WNW 22:25:38 10° NNE
Milstar 3 Cent rocket 3.9 22:05:32 10° W 22:23:41 55° SSW 22:26:27 46° SSE
H-2A R/B 3.1 22:26:32 40° W 22:26:32 40° W 22:30:00 10° NNW
Cosmos 2297 Rocket 3.1 22:22:26 10° NW 22:27:42 41° WSW 22:28:59 36° SW
Cosmos 972 Rocket 4.5 22:23:40 10° NNW 22:29:36 77° WSW 22:30:26 66° SSW
USA 215 3.8 22:29:23 42° ENE 22:30:34 46° NE 22:36:45 10° NW
Lacrosse 5 2.6 22:26:39 10° NNW 22:30:48 47° NNE 22:30:48 47° NNE
SPOT 5 3.4 22:31:47 54° WSW 22:31:59 54° W 22:36:50 10° NNW
BREEZE-M TANK 3.6 22:33:48 10° WNW 22:38:57 47° WNW 22:38:57 47° WNW
Cosmos 1725 Rocket 4.0 22:42:15 72° NNE 22:42:15 72° NNE 22:47:51 10° N
H-2A R/B 3.3 22:50:52 32° NNE 22:50:52 32° NNE 22:53:40 10° N
Lacrosse 5 rocket 4.0 22:48:21 10° WNW 22:49:06 14° WNW 22:49:06 14° WNW
Cosmos 2098 Rocket 4.3 22:55:16 66° WSW 22:56:00 71° W 23:02:19 10° N
SL-16 R/B 4.1 23:11:47 20° NNE 23:11:47 20° NNE 23:13:26 10° NNE
Terra 3.8 23:19:09 25° N 23:19:09 25° N 23:21:08 10° NNW
Cosmos 1980 Rocket 3.8 23:25:46 27° W 23:26:58 30° WNW 23:31:56 10° N
